Weather History for KHKY - September, 2013

Change the Weather History Date:

Monday, September 16, 2013

  Actual Average Record
Temperature  
Mean Temperature 70 °F -  
Max Temperature 84 °F 79 °F - (-1)
Min Temperature 59 °F 59 °F - (-1)
Cooling Degree Days 6    
Growing Degree Days 20 (Base 50)    
Moisture  
Dew Point 59 °F    
Average Humidity 79    
Maximum Humidity 100    
Minimum Humidity 42    
Precipitation  
Precipitation 0.01 in - - ()
Sea Level Pressure  
Sea Level Pressure 30.12 in    
Wind  
Wind Speed 3 mph (NW)    
Max Wind Speed 9 mph    
Max Gust Speed -    
Visibility 6 miles    
Events      
Averages and records for this station are not official NWS values.
T = Trace of Precipitation, MM = Missing Value Source: NWS Daily Summary

Daily Weather History Graph

Daily Weather History Graph

Search for Another Location

Airport or City:

Trip Planner

Search our weather history database for the weather conditions in past years. The results will help you decide how hot, cold, wet, or windy it might be!

Date:

Astronomy

Sep. 16, 2013 Rise Set
Actual Time 7:09 AM EDT 7:30 PM EDT
Civil Twilight 6:43 AM EDT 7:56 PM EDT
Nautical Twilight 6:13 AM EDT 8:26 PM EDT
Astronomical Twilight 5:42 AM EDT 8:56 PM EDT
Moon 5:35 PM EDT (9/16) 3:58 AM EDT (9/16)
Length of Visible Light 13h 12m
Length of Day
12h 21m
Waxing Gibbous, 90% of the Moon is Illuminated
Sep 16
Waxing Gibbous
Sep 19
Full
Sep 26
Last Quarter
Oct 4
New
Oct 11
First Quarter

Hourly Weather History & Observations

Time (EDT) Temp. Heat Index Dew Point Humidity Pressure Visibility Wind Dir Wind Speed Gust Speed Precip Events Conditions
12:53 AM 63.0 °F - 60.1 °F 90% 30.11 in 6.0 mi Calm Calm - N/A   Partly Cloudy
1:53 AM 63.0 °F - 60.1 °F 90% 30.11 in 6.0 mi Calm Calm - 0.01 in   Clear
2:53 AM 62.1 °F - 60.1 °F 93% 30.10 in 5.0 mi NNW 4.6 mph - N/A   Clear
3:17 AM 60.8 °F - 59.0 °F 94% 30.15 in 3.0 mi NW 4.6 mph - N/A   Scattered Clouds
3:26 AM 60.8 °F - 60.8 °F 100% 30.15 in 3.0 mi WNW 4.6 mph - N/A   Mostly Cloudy
3:40 AM 62.6 °F - 60.8 °F 94% 30.16 in 4.0 mi WNW 4.6 mph - N/A   Overcast
3:53 AM 62.1 °F - 60.1 °F 93% 30.10 in 5.0 mi WNW 5.8 mph - N/A   Overcast
4:53 AM 61.0 °F - 59.0 °F 93% 30.09 in 6.0 mi Calm Calm - N/A   Partly Cloudy
5:53 AM 60.1 °F - 59.0 °F 96% 30.10 in 5.0 mi Calm Calm - N/A   Clear
6:53 AM 60.1 °F - 57.9 °F 93% 30.11 in 6.0 mi WNW 4.6 mph - N/A   Clear
7:20 AM 59.0 °F - 57.2 °F 94% 30.16 in 1.0 mi NW 5.8 mph - N/A   Mist
7:35 AM 59.0 °F - 57.2 °F 94% 30.16 in 1.0 mi West 4.6 mph - N/A   Mist
7:53 AM 60.1 °F - 57.9 °F 93% 30.12 in 1.0 mi West 3.5 mph - N/A   Clear
8:00 AM 60.8 °F - 59.0 °F 94% 30.16 in 6.0 mi Calm Calm - N/A   Clear
8:36 AM 60.8 °F - 59.0 °F 94% 30.16 in 3.0 mi NW 3.5 mph - N/A   Scattered Clouds
8:40 AM 60.8 °F - 59.0 °F 94% 30.16 in 1.8 mi Calm Calm - N/A   Scattered Clouds
8:43 AM 60.8 °F - 59.0 °F 94% 30.16 in 0.8 mi WNW 3.5 mph - N/A   Mist
8:53 AM 61.0 °F - 60.1 °F 97% 30.11 in 0.8 mi West 3.5 mph - N/A   Mostly Cloudy
8:58 AM 60.8 °F - 59.0 °F 94% 30.16 in 2.0 mi WNW 3.5 mph - N/A   Overcast
9:09 AM 62.6 °F - 60.8 °F 94% 30.17 in 4.0 mi West 4.6 mph - N/A   Mostly Cloudy
9:24 AM 62.6 °F - 60.8 °F 94% 30.17 in 6.0 mi Calm Calm - N/A   Clear
9:53 AM 68.0 °F - 63.0 °F 84% 30.12 in 10.0 mi Calm Calm - N/A   Clear
10:53 AM 72.0 °F - 63.0 °F 73% 30.12 in 10.0 mi Calm Calm - N/A   Clear
11:53 AM 77.0 °F - 61.0 °F 58% 30.11 in 10.0 mi WSW 4.6 mph - N/A   Clear
12:53 PM 81.0 °F 81.1 °F 57.9 °F 45% 30.10 in 10.0 mi Variable 5.8 mph - N/A   Clear
1:53 PM 81.0 °F 81.3 °F 59.0 °F 47% 30.08 in 10.0 mi NNW 8.1 mph - N/A   Partly Cloudy
2:53 PM 82.0 °F 82.0 °F 57.9 °F 44% 30.06 in 10.0 mi Variable 5.8 mph - N/A   Clear
3:53 PM 82.9 °F 82.6 °F 57.9 °F 42% 30.04 in 10.0 mi North 4.6 mph - N/A   Scattered Clouds
4:53 PM 80.1 °F 80.9 °F 60.1 °F 50% 30.04 in 10.0 mi North 4.6 mph - N/A   Partly Cloudy
5:53 PM 78.1 °F - 60.1 °F 54% 30.06 in 10.0 mi North 5.8 mph - N/A   Overcast
6:53 PM 75.0 °F - 59.0 °F 57% 30.07 in 10.0 mi North 6.9 mph - N/A   Mostly Cloudy
7:53 PM 73.0 °F - 59.0 °F 61% 30.09 in 10.0 mi Calm Calm - N/A   Overcast
8:53 PM 72.0 °F - 60.1 °F 66% 30.12 in 10.0 mi NNE 4.6 mph - N/A   Overcast
9:53 PM 71.1 °F - 60.1 °F 68% 30.14 in 10.0 mi NE 3.5 mph - N/A   Overcast
10:53 PM 71.1 °F - 57.9 °F 63% 30.14 in 10.0 mi ENE 9.2 mph - N/A   Overcast
11:53 PM 69.1 °F - 57.9 °F 68% 30.15 in 10.0 mi NE 8.1 mph - N/A   Overcast